Date String (YYYY-MM-DD hh:mm:ss) UTC,Instrument flags,Ambient pressure (hPa),Sample flow (lpm),Bypass flow (lpm),Sample temperature (°C),Ambient temperature (°C),ASC tube jacket temperature (°C),LED temperature (°C),Box temperature (°C),Sample RH (%),Span deviation,Mass concentration (μg/m³),Mass concentration (μg/m³),Mass concentration (μg/m³)
DateTimeUTC,F1_M11,P_M11,Q1_M11,Q2_M11,T1_M11,T2_M11,T3_M11,T4_M11,T5_M11,U1_M11,ZSPAN_M11,X0_M11,X2_M11,X1_M11
2023-03-06 08:00:00,,0822.2,5.01,0.00,21.2,20.3,00.0,29.9,22.6,12.1,0000.0,0006.29,0002.87,0001.92
2023-03-06 08:01:00,,0822.1,5.01,0.00,21.1,19.7,00.0,29.9,22.4,12.1,0000.0,0006.35,0002.86,0001.92
2023-03-06 08:02:00,,0822.1,5.01,0.00,21.0,19.2,00.0,29.9,22.3,12.2,0000.0,0006.52,0002.89,0001.94
2023-03-06 08:03:00,,0822.1,5.00,0.00,20.9,18.8,00.0,29.8,22.1,12.3,0000.0,0006.60,0002.93,0001.95
2023-03-06 08:04:00,,0822.2,5.01,0.00,20.8,18.8,00.0,29.8,22.0,12.3,0000.0,0006.32,0002.89,0001.96
2023-03-06 08:05:00,,0822.2,5.02,0.00,20.9,20.2,00.0,29.8,22.4,12.3,0000.0,0006.06,0002.88,0001.96
2023-03-06 08:06:00,,0822.2,5.01,0.00,21.0,21.5,00.0,29.8,22.8,12.2,0000.0,0006.10,0002.86,0001.96
2023-03-06 08:07:00,,0822.2,4.99,0.00,21.2,22.3,00.0,29.8,23.1,12.1,0000.0,0006.74,0002.82,0001.97
2023-03-06 08:08:00,,0822.2,5.01,0.00,21.2,21.7,00.0,29.9,23.0,12.0,0000.0,0006.43,0002.81,0001.98
2023-03-06 08:09:00,,0822.2,5.00,0.00,21.2,20.8,00.0,29.9,22.7,12.1,0000.0,0006.49,0002.82,0001.99
2023-03-06 08:10:00,,0822.2,5.00,0.00,21.1,20.1,00.0,29.9,22.5,12.1,0000.0,0006.70,0002.83,0002.00
2023-03-06 08:11:00,,0822.2,4.99,0.00,21.0,19.5,00.0,29.9,22.3,12.2,0000.0,0006.97,0002.83,0002.02
2023-03-06 08:12:00,,0822.2,5.00,0.00,20.9,19.1,00.0,29.8,22.1,12.2,0000.0,0007.36,0002.85,0002.03
2023-03-06 08:13:00,,0822.2,5.00,0.00,20.8,19.0,00.0,29.8,22.0,12.3,0000.0,0007.21,0002.81,0002.02
2023-03-06 08:14:00,,0822.2,5.02,0.00,20.9,20.3,00.0,29.7,22.4,12.3,0000.0,0007.15,0002.80,0002.01
2023-03-06 08:15:00,,0822.2,4.98,0.00,21.1,21.5,00.0,29.7,22.8,12.2,0000.0,0007.25,0002.84,0002.02
2023-03-06 08:16:00,,0822.2,4.99,0.00,21.2,22.2,00.0,29.8,23.1,12.1,0000.0,0007.36,0002.89,0002.03
2023-03-06 08:17:00,,0822.2,5.02,0.00,21.3,21.7,00.0,29.8,23.0,12.1,0000.0,0007.22,0002.92,0002.04
2023-03-06 08:18:00,,0822.2,4.99,0.00,21.2,20.8,00.0,29.9,22.8,12.1,0000.0,0006.61,0002.98,0002.06
2023-03-06 08:19:00,,0822.3,5.01,0.00,21.1,20.1,00.0,29.9,22.5,12.2,0000.0,0006.75,0003.05,0002.06
2023-03-06 08:20:00,,0822.3,5.00,0.00,21.0,19.5,00.0,29.9,22.3,12.2,0000.0,0006.68,0003.07,0002.05
2023-03-06 08:21:00,,0822.3,5.00,0.00,20.9,19.1,00.0,29.9,22.2,12.3,0000.0,0006.53,0003.04,0002.03
2023-03-06 08:22:00,,0822.3,5.00,0.00,20.9,18.7,00.0,29.8,22.1,12.3,0000.0,0006.44,0003.01,0002.01
2023-03-06 08:23:00,,0822.3,5.01,0.00,20.8,19.2,00.0,29.8,22.2,12.4,0000.0,0006.17,0002.98,0002.00
2023-03-06 08:24:00,,0822.3,4.98,0.00,21.0,20.7,00.0,29.7,22.6,12.3,0000.0,0006.13,0002.98,0002.00
2023-03-06 08:25:00,,0822.3,5.01,0.00,21.1,21.9,00.0,29.8,23.0,12.2,0000.0,0006.13,0002.98,0001.99
2023-03-06 08:26:00,,0822.3,5.00,0.00,21.2,22.2,00.0,29.8,23.1,12.1,0000.0,0006.16,0002.98,0001.98
2023-03-06 08:27:00,,0822.3,5.00,0.00,21.3,21.5,00.0,29.9,23.0,12.0,0000.0,0005.90,0002.92,0001.96
2023-03-06 08:28:00,,0822.3,5.00,0.00,21.2,20.7,00.0,29.9,22.7,12.1,0000.0,0006.01,0002.94,0001.95
2023-03-06 08:29:00,,0822.3,5.01,0.00,21.1,20.0,00.0,29.9,22.5,12.1,0000.0,0005.95,0002.91,0001.94
2023-03-06 08:30:00,,0822.3,4.99,0.00,21.0,19.5,00.0,29.9,22.4,12.1,0000.0,0006.31,0002.85,0001.93
2023-03-06 08:31:00,,0822.3,5.00,0.00,21.0,19.1,00.0,29.9,22.2,12.2,0000.0,0006.29,0002.84,0001.93
2023-03-06 08:32:00,,0822.2,5.00,0.00,20.9,18.8,00.0,29.8,22.2,12.2,0000.0,0006.62,0002.90,0001.95
2023-03-06 08:33:00,,0822.2,4.98,0.00,20.9,19.9,00.0,29.8,22.4,12.2,0000.0,0007.36,0003.05,0001.95
2023-03-06 08:34:00,,0822.2,5.02,0.00,21.1,21.3,00.0,29.8,22.8,12.0,0000.0,0007.63,0003.10,0001.96
2023-03-06 08:35:00,,0822.2,4.98,0.00,21.2,22.2,00.0,29.8,23.1,11.9,0000.0,0007.64,0003.10,0001.96
2023-03-06 08:36:00,,0822.2,5.00,0.00,21.3,22.0,00.0,29.9,23.1,11.8,0000.0,0007.79,0003.08,0001.96
2023-03-06 08:37:00,,0822.2,4.99,0.00,21.3,21.1,00.0,29.9,22.9,11.8,0000.0,0007.86,0003.08,0001.96
2023-03-06 08:38:00,,0822.3,4.99,0.00,21.2,20.4,00.0,29.9,22.8,11.8,0000.0,0007.88,0003.10,0001.96
2023-03-06 08:39:00,,0822.3,4.99,0.00,21.2,19.9,00.0,29.9,22.6,11.8,0000.0,0008.00,0003.10,0001.97
2023-03-06 08:40:00,,0822.3,5.00,0.00,21.1,19.4,00.0,29.9,22.4,11.9,0000.0,0008.16,0003.13,0001.97
2023-03-06 08:41:00,,0822.3,5.01,0.00,21.0,19.0,00.0,29.9,22.3,11.9,0000.0,0008.04,0003.14,0001.99
2023-03-06 08:42:00,,0822.3,5.02,0.00,20.9,19.2,00.0,29.9,22.3,12.0,0000.0,0008.32,0003.13,0001.98
2023-03-06 08:43:00,,0822.4,5.01,0.00,21.0,20.6,00.0,29.8,22.6,11.8,0000.0,0008.11,0003.11,0001.97
2023-03-06 08:44:00,,0822.3,5.00,0.00,21.2,21.7,00.0,29.8,23.0,11.7,0000.0,0007.56,0003.02,0001.95
2023-03-06 08:45:00,,0822.4,5.00,0.00,21.3,22.2,00.0,29.9,23.2,11.7,0000.0,0007.18,0002.99,0001.93
2023-03-06 08:46:00,,0822.3,5.00,0.00,21.3,21.5,00.0,29.9,23.1,11.6,0000.0,0007.22,0003.03,0001.93
2023-03-06 08:47:00,,0822.3,4.98,0.00,21.3,20.6,00.0,29.9,22.8,11.7,0000.0,0007.15,0002.99,0001.92
2023-03-06 08:48:00,,0822.3,5.00,0.00,21.2,20.0,00.0,29.9,22.6,11.7,0000.0,0007.85,0002.95,0001.91
2023-03-06 08:49:00,,0822.3,5.00,0.00,21.1,19.4,00.0,29.9,22.4,11.7,0000.0,0008.28,0002.95,0001.90
2023-03-06 08:50:00,,0822.3,5.00,0.00,21.0,19.0,00.0,29.9,22.3,11.8,0000.0,0008.19,0002.94,0001.89
2023-03-06 08:51:00,,0822.4,5.00,0.00,20.9,19.1,00.0,29.9,22.2,11.9,0000.0,0007.95,0002.88,0001.87
2023-03-06 08:52:00,,0822.3,5.00,0.00,21.0,20.4,00.0,29.8,22.6,11.8,0000.0,0007.86,0002.87,0001.85
2023-03-06 08:53:00,,0822.4,4.98,0.00,21.2,21.7,00.0,29.8,23.0,11.7,0000.0,0007.97,0002.86,0001.84
2023-03-06 08:54:00,,0822.4,4.97,0.00,21.3,22.4,00.0,29.9,23.3,11.6,0000.0,0008.18,0002.86,0001.85
2023-03-06 08:55:00,,0822.4,4.99,0.00,21.4,21.7,00.0,29.9,23.1,11.5,0000.0,0008.15,0002.85,0001.85
2023-03-06 08:56:00,,0822.4,5.01,0.00,21.3,20.9,00.0,30.0,22.9,11.6,0000.0,0008.50,0002.85,0001.85
2023-03-06 08:57:00,,0822.4,5.01,0.00,21.3,20.2,00.0,30.0,22.7,11.6,0000.0,0008.77,0002.83,0001.85
2023-03-06 08:58:00,,0822.4,5.01,0.00,21.2,19.7,00.0,30.0,22.6,11.6,0000.0,0008.79,0002.85,0001.85
2023-03-06 08:59:00,,0822.4,5.00,0.00,21.1,19.3,00.0,30.0,22.5,11.6,0000.0,0007.99,0002.85,0001.84
